Location: B?dimalle
(17.1788°N, 80.5377°E)
Time: 05:58:08
(UTC+00:00)

Vanguard 1 - Pass Details

Date: 16 February 2026
Orbit: 653 x 3818 km, 34.2° (Epoch: 14 March)

Event Time Altitude Azimuth Distance (km) Brightness Sun altitude
Rises 17:24:51 0° 299° (WNW) 7,592 14.9 -68.4°
Reaches altitude 10° 17:29:45 10° 297° (WNW) 6,756 14.5 -69.5°
Enters shadow 17:42:00 40° 285° (WNW) 4,825 13.4 -72.4°
